User: anonymous   Login
Location: Unspecified
(0.0000°N, 0.0000°E)
Time: 07:24:22
(UTC+00:00)
Language:

BEESAT 4 - Orbit

View from above orbital plane
View from above orbital plane
View from above satellite
View from above satellite

Ground track
Ground track

The orbit data is extracted from the following two-line orbital elements,

1 41619U 16040W   19082.91970512 +.00001085 +00000-0 +49270-4 0  9996
2 41619 097.3775 146.7276 0010536 336.5185 023.5569 15.22868501140654
Epoch (UTC): 23 March 2019 22:04:22
Eccentricity: 0.0010536
inclination: 97.3775°
perigee height: 490 km
apogee height: 504 km
right ascension of ascending node: 146.7276°
argument of perigee: 336.5185°
revolutions per day: 15.22868501
mean anomaly at epoch: 23.5569°
orbit number at epoch: 14065

The dashed part of the orbit path shows where the satellite is in the earth's shadow,  

DLR